Mumbai, India

5:52 PM IST on August 26, 2016 (GMT +0530)
Chhatrapati Shivaji International

Weather History for VABB - August, 2013

Change the Weather History Date:

Saturday, August 10, 2013

  Actual Average Record
Temperature  
Mean Temperature 80 °F -  
Max Temperature 85 °F 84 °F 87 °F (1996)
Min Temperature 75 °F 77 °F 75 °F (2013)
Cooling Degree Days 15    
Growing Degree Days 30 (Base 50)    
Moisture  
Dew Point 76 °F    
Average Humidity 82    
Maximum Humidity 94    
Minimum Humidity 69    
Precipitation  
Precipitation 0.04 in - - ()
Sea Level Pressure  
Sea Level Pressure 29.72 in    
Wind  
Wind Speed 10 mph ()    
Max Wind Speed 17 mph    
Max Gust Speed 29 mph    
Visibility 2.0 miles    
Events Rain    
Averages and records for this station are not official NWS values.
T = Trace of Precipitation, MM = Missing Value Source: Averaged Metar Reports

Daily Weather History Graph

Daily Weather History Graph

Search for Another Location

Airport or City:

Trip Planner

Search our weather history database for the weather conditions in past years. The results will help you decide how hot, cold, wet, or windy it might be!

Date:

Astronomy

Aug. 10, 2013 Rise Set
Actual Time 6:18 AM IST 7:09 PM IST
Civil Twilight 5:55 AM IST 7:32 PM IST
Nautical Twilight 5:28 AM IST 7:59 PM IST
Astronomical Twilight 5:00 AM IST 8:26 PM IST
Moon 9:01 AM IST (8/10) 9:16 PM IST (8/10)
Length of Visible Light 13h 37m
Length of Day
12h 51m
Waxing Crescent, 11% of the Moon is Illuminated
Aug 10
Waxing Crescent
Aug 14
First Quarter
Aug 21
Full
Aug 28
Last Quarter
Sep 5
New

Hourly Weather History & Observations

Time (IST) Temp. Heat Index Dew Point Humidity Pressure Visibility Wind Dir Wind Speed Gust Speed Precip Events Conditions
12:10 AM 80.6 °F 86.2 °F 75.2 °F 84% 29.77 in - SW 11.5 mph - N/A   Haze
12:40 AM 80.6 °F 86.2 °F 75.2 °F 84% 29.74 in 2.2 mi SW 11.5 mph - N/A   Haze
1:10 AM 80.6 °F 86.2 °F 75.2 °F 84% 29.74 in 2.2 mi WSW 10.4 mph - N/A   Haze
1:40 AM 80.6 °F 86.2 °F 75.2 °F 84% 29.74 in 2.2 mi SW 15.0 mph - N/A   Haze
2:10 AM 80.6 °F 86.2 °F 75.2 °F 84% 29.71 in 2.2 mi SW 11.5 mph - N/A   Haze
2:30 AM 81 °F - 75 °F 78% 29.72 in 1 mi SW 6.9 mph - -   Haze
2:40 AM 80.6 °F 86.2 °F 75.2 °F 84% 29.71 in 2.2 mi SW 9.2 mph - N/A   Haze
3:10 AM 80.6 °F 86.2 °F 75.2 °F 84% 29.71 in 2.2 mi WSW 8.1 mph - N/A   Haze
3:40 AM 78.8 °F - 77.0 °F 94% 29.71 in 1.6 mi SW 6.9 mph - N/A   Haze
4:10 AM 78.8 °F - 77.0 °F 94% 29.68 in 1.6 mi WSW 11.5 mph - N/A   Haze
4:40 AM 78.8 °F - 75.2 °F 89% 29.68 in 1.6 mi SW 12.7 mph - N/A Rain Light Rain
5:10 AM 80.6 °F 87.1 °F 77.0 °F 89% 29.68 in 1.6 mi WSW 15.0 mph - N/A   Haze
5:30 AM 80 °F - 76 °F 82% 29.70 in 1 mi WSW 9.2 mph - - Rain Light Drizzle
5:40 AM 80.6 °F 87.1 °F 77.0 °F 89% 29.68 in 1.6 mi WSW 13.8 mph - N/A Rain Light Rain
6:10 AM 78.8 °F - 77.0 °F 94% 29.71 in 1.4 mi WSW 8.1 mph 19.6 mph N/A Rain Light Rain
6:40 AM 80.6 °F 87.1 °F 77.0 °F 89% 29.71 in 1.6 mi WSW 12.7 mph - N/A   Haze
7:10 AM 80.6 °F 87.1 °F 77.0 °F 89% 29.71 in 1.6 mi WSW 8.1 mph 19.6 mph N/A   Haze
7:40 AM 80.6 °F 87.1 °F 77.0 °F 89% 29.74 in 1.6 mi WSW 13.8 mph - N/A   Haze
8:10 AM 82.4 °F 90.9 °F 77.0 °F 84% 29.74 in 1.6 mi WSW 13.8 mph - N/A   Mostly Cloudy
8:30 AM 81 °F - 76 °F 82% 29.75 in 1 mi SW 6.9 mph - -   Haze
8:40 AM 82.4 °F 90.9 °F 77.0 °F 84% 29.74 in 1.7 mi WSW 13.8 mph - N/A   Haze
9:40 AM 82.4 °F 90.9 °F 77.0 °F 84% 29.74 in 1.9 mi WSW 13.8 mph - N/A   Haze
11:30 AM 82 °F - 74 °F 72% 29.76 in 1 mi SW 6.9 mph - - Rain Light Drizzle
11:40 AM 82.4 °F 90.9 °F 77.0 °F 84% 29.74 in 2.2 mi WSW 10.4 mph 21.9 mph N/A   Haze
12:10 PM 82.4 °F 90.9 °F 77.0 °F 84% 29.74 in 2.2 mi SW 13.8 mph - N/A   Haze
12:40 PM 82.4 °F 90.9 °F 77.0 °F 84% 29.74 in 1.6 mi WSW 11.5 mph 23.0 mph N/A   Overcast
2:30 PM 85 °F - 76 °F 69% 29.73 in 2 mi West 6.9 mph - -   Partly Cloudy
2:40 PM 84.2 °F 94.1 °F 77.0 °F 79% 29.71 in 3.1 mi WSW 17.3 mph 28.8 mph N/A   Haze
3:10 PM 84.2 °F 92.3 °F 75.2 °F 74% 29.68 in 3.1 mi WSW 15.0 mph 26.5 mph N/A   Haze
3:40 PM 84.2 °F 92.3 °F 75.2 °F 74% 29.71 in 3.1 mi West 10.4 mph 21.9 mph N/A   Haze
4:10 PM 84.2 °F 92.3 °F 75.2 °F 74% 29.68 in 3.1 mi WSW 10.4 mph 21.9 mph N/A   Haze
4:40 PM 82.4 °F 89.5 °F 75.2 °F 79% 29.68 in 3.1 mi WSW 15.0 mph - N/A   Haze
5:10 PM 82.4 °F 89.5 °F 75.2 °F 79% 29.68 in 3.1 mi WSW 8.1 mph 19.6 mph N/A   Haze
5:40 PM 82.4 °F 88.2 °F 73.4 °F 74% 29.68 in 3.1 mi WSW 13.8 mph - N/A   Haze
6:10 PM 82.4 °F 89.5 °F 75.2 °F 79% 29.68 in 3.1 mi WSW 13.8 mph - N/A   Haze
6:40 PM 82.4 °F 88.2 °F 73.4 °F 74% 29.68 in 3.1 mi WSW 8.1 mph 19.6 mph N/A   Haze
7:10 PM 82.4 °F 88.2 °F 73.4 °F 74% 29.71 in 2.5 mi WSW 11.5 mph - N/A   Haze
7:40 PM 82.4 °F 89.5 °F 75.2 °F 79% 29.71 in 2.5 mi WSW 11.5 mph - N/A   Haze
8:10 PM 82.4 °F 89.5 °F 75.2 °F 79% 29.71 in - WSW 12.7 mph - N/A   Haze
8:30 PM 81 °F - 75 °F 77% 29.72 in 1 mi SW 6.9 mph - -   Haze
8:40 PM 82.4 °F 89.5 °F 75.2 °F 79% 29.71 in 1.9 mi WSW 11.5 mph - N/A   Haze
9:10 PM 82.4 °F 89.5 °F 75.2 °F 79% 29.74 in 1.9 mi WSW 11.5 mph - N/A   Haze
9:40 PM 82.4 °F 89.5 °F 75.2 °F 79% 29.74 in 1.9 mi SW 6.9 mph - N/A   Haze
10:10 PM 82.4 °F 89.5 °F 75.2 °F 79% 29.74 in 1.9 mi WSW 11.5 mph - N/A   Haze
10:40 PM 80.6 °F 86.2 °F 75.2 °F 84% 29.77 in 1.9 mi WSW 9.2 mph - N/A   Haze
11:10 PM 80.6 °F 86.2 °F 75.2 °F 84% 29.77 in 1.9 mi WSW 9.2 mph - N/A   Haze
11:30 PM 81 °F - 76 °F 82% 29.76 in 1 mi SW 6.9 mph - -   Haze
11:40 PM 80.6 °F 86.2 °F 75.2 °F 84% 29.77 in 1.9 mi SW 12.7 mph - N/A   Haze